Regional Weather Roundup
Issued by NWS Huntsville, AL

Home | Current Version | Previous Version | Text Only | Print | Product List | Glossary On
Versions: 1 2 3 4 5 6 7 8 9 10 11 12 13 14 15 16 17 18 19 20 21 22 23 24 25 26 27 28 29 30 31 32 33 34 35 36 37 38 39 40 41 42 43 44 45 46 47 48 49 50
000
ASUS44 KHUN 252210
RWRHUN

WEATHER ROUNDUP FOR THE TENNESSEE VALLEY
NATIONAL WEATHER SERVICE HUNTSVILLE AL
500 PM CDT MON MAY 25 2015

ALZ001>004-252300-
NORTHWEST ALABAMA

CITY           SKY/WX    TMP DP  RH WIND       PRES   REMARKS
COURTLAND HCN    N/A     72 N/A N/A S7          N/A
BANKHEAD NF      N/A     70  68  92 CALM        N/A
RUSSELLVILLE     N/A     72 N/A N/A MISG        N/A
SHOALS AIRPORT CLOUDY    73  66  78 S6        30.12F
SHOALS TVA RES   N/A     72 N/A N/A MISG        N/A
$$

ALZ005>007-016-252300-
NORTH CENTRAL ALABAMA

CITY           SKY/WX    TMP DP  RH WIND       PRES   REMARKS
DECATUR AP     CLOUDY    70  67  90 SE6       30.14F
HUNTSVILLE AP  CLOUDY    72  68  87 SE6       30.14F
HUN NWS/UAH      N/A     69  65  87 SE3         N/A
MERIDIANVILLE  CLOUDY    70  63  78 CALM      30.15F
REDSTONE ARSN  CLOUDY    70  67  90 SE2       30.14F
VINEMONT AP    FAIR      72  68  87 S3        30.17F
$$

ALZ008>010-252300-
NORTHEAST ALABAMA

CITY           SKY/WX    TMP DP  RH WIND       PRES   REMARKS
ALBERTVILLE    DRIZZLE   72  72 100 S6        30.17S
FORT PAYNE     CLOUDY    70  66  88 CALM      30.19R
SCOTTSBORO HCN   N/A     68 N/A N/A MISG        N/A
VALLEY HEAD      N/A     70 N/A N/A MISG        N/A
$$

TNZ076-096-097-252300-
SOUTHEASTERN MIDDLE TENNESSEE

CITY           SKY/WX    TMP DP  RH WIND       PRES   REMARKS
TULLAHOMA      PTSUNNY   68  64  88 SE3       30.17F
WINCHESTER     MOSUNNY   70  66  88 SE8       30.17F
$$

...SURROUNDING SITES...

CITY           SKY/WX    TMP DP  RH WIND       PRES   REMARKS
ATLANTA        CLOUDY    78  69  73 E10       30.20S
ANNISTON       LGT RAIN  70  64  81 SW6       30.20R
BIRMINGHAM     CLOUDY    73  70  90 VRB7      30.18F
CHATTANOOGA    TSTM      71  68  90 W8        30.19S FOG
CORINTH        PTSUNNY   75  68  78 SE10      30.07F
DALTON         CLOUDY    79  66  65 SE7       30.18S
GADSDEN        CLOUDY   N/A N/A N/A SW5       30.17S
GOLDEN TRNGL   PTSUNNY   77  68  73 SE15      30.10S
HALEYVILLE     FAIR      70  70 100 CALM      30.16F
JACKSON TN     CLOUDY    76  68  76 SE6       30.06F
MEMPHIS        PTSUNNY   83  69  62 SE12      30.00F
NASHVILLE      CLOUDY    73  67  81 S9        30.13S
OXFORD MS      FAIR      77  70  78 SE8       30.05F
ROME           CLOUDY    80  68  66 S7        30.17S
SAVANNAH       SUNNY     73  32  21 S3        30.10F
TUPELO         CLOUDY    77  70  79 S9        30.08S
TUSCALOOSA     CLOUDY    75  71  87 S7        30.14F
$$

...GULF COAST WEATHER...

CITY           SKY/WX    TMP DP  RH WIND       PRES   REMARKS
GULFPORT       CLOUDY    80  71  74 E7        30.05F
PASCAGOULA     CLOUDY    82  73  74 SE6       30.08F
MOBILE         CLOUDY    78  72  81 E8        30.11F THUNDER
GULF SHORES    CLOUDY    82  76  83 SE9       30.09F HX  90
PENSACOLA      CLOUDY    82  77  84 SE14      30.09F HX  90
DESTIN         PTSUNNY   84  77  79 SE10      30.12S HX  94
PANAMA CITY    PTSUNNY   83  74  72 S13       30.12F HX  90
APPALACHICOLA  PTSUNNY   87  73  62 SE12      30.14S HX  94
$$



USA.gov is the U.S. government's official web portal to all federal, state and local government web resources and services.